COSMOS 2434 (721) (32393 NORAD) Tracking and Keplerian Element Data

This shows tracking and keplerian element data for the satellite.

Feedback or suggestion? Click here.




ElementValue
Catalog32393
NameCOSMOS 2434 (721)
Epoch Orbit13315
Epoch Day34.84735478
Epoch Year2025
RAAN208.7333
Inclination64.3182
Eccentricity0.0004868
Argument of Perigee74.0772
Mean Anonmoly35.5416
Mean Motion2.13101255
Decay Rate1.03E-06
L11 32393U 07065A 25034.84735478 .00000103 00000+0 00000+0 0 9990
L22 32393 64.3182 208.7333 0004868 74.0772 35.5416 2.13101255133152



Live tracking and technical data element details for COSMOS 2434 (721) (NORAD 32393). COSMOS 2434 (721) can be tracked NOW for your location showing map with azimuth and elevation plus other details from your city location.







IsCatalogInMostPopularTable: catalog: 32393, numindb: 351
Update: records affected: 1



GetName: 32393 COSMOS 2434 (721)

Hit Count: updated at: Thu, 15 May 2025 20:22:02 GMT